Darstellungsparameter: Aktuell verwendete Einstellungen:
Skalierung der Graphiken ... ?
xyx+y,   Skalierungsfaktor:      Skalierung: Modus: x, Faktor: 1
Darstellungszeitraum ... ?
Vom - - bis: - -   Zeitraum: 08.05.2021 - 09.05.2021
Min/Max/Avg-Anzeige ... ?
Zeige MMA aktuell
Zeige MMA Monat
Zeige MMA alles
Zeige --A aktuell
Zeige --A Monat
Zeige --A alles
Keine MMA-Anzeige
MMA:
Keine MMA-Graphiken
MMA-Basis: 08.05.2021 - 09.05.2021
Quicknavigation für Darstellung... ?
Tage:      1T, 2T, 3T, 5T -1T -2T -3T -5T +1T +2T +3T +5T
Wochen: 1W, 2W, 3W -1W -2W -3W +1W +2W +3W
Monate: 1M, 3M, 6M -1M -3M -6M +1M +3M +6M
Jahre:    1J, 3J, 5J, 10J -1J -3J -5J -10J +1J +3J +5J +10J
Nutze für die Darstellung ... ?
Originaldaten oder Mittelwerte auf ...
Stundenbasis Tagesbasis Wochenbasis
Monatsbasis Jahresbasis      Datenbasis: Original-Daten
Darstellen als:
Statistik (Auto) Statistik J:M      Darstellung:

Der gewünschte Datumsbereich war nicht gültig/verfügbar und wurde korrigiert....
Das angegebene Enddatum (15.02.2025 23:59:59) liegt in der Zukunft.
Das angegebene Startdatum (16.11.2024 00:00:00) liegt in der Zukunft.


Zur Graphik,    zurück zur Übersicht aller Sensoren.
 
Tabellarische Datenbersicht: ?
 
Sensor: Nr:Datum:Temp:Abs-Feuchte:Windchill:Wind:
Aussen-T/F 1 08-05-2021 02:00:00 3.2 C 5.42 g/m*3 3.2 C 0 km/h
2 08-05-2021 02:05:00 3.1 C 5.39 g/m*3 3.1 C 0 km/h
3 08-05-2021 02:10:00 3 C 5.29 g/m*3 3 C 0 km/h
4 08-05-2021 02:15:00 2.9 C 5.32 g/m*3 2.9 C 0 km/h
5 08-05-2021 02:20:00 2.8 C 5.28 g/m*3 2.8 C 0 km/h
6 08-05-2021 02:25:00 2.7 C 5.24 g/m*3 2.7 C 0 km/h
7 08-05-2021 02:30:00 2.7 C 5.24 g/m*3 2.7 C 0 km/h
8 08-05-2021 02:35:00 2.7 C 5.3 g/m*3 2.7 C 3.2 km/h
9 08-05-2021 02:40:00 2.8 C 5.28 g/m*3 2.8 C 0 km/h
10 08-05-2021 02:45:00 2.7 C 5.24 g/m*3 2.7 C 0 km/h
11 08-05-2021 02:50:00 2.6 C 5.21 g/m*3 2.6 C 0 km/h
12 08-05-2021 02:55:00 2.4 C 5.14 g/m*3 2.4 C 0 km/h
13 08-05-2021 03:00:00 2.3 C 5.1 g/m*3 2.3 C 0 km/h
14 08-05-2021 03:05:00 2.3 C 5.1 g/m*3 2.3 C 1.6 km/h
15 08-05-2021 03:10:00 2.2 C 5.07 g/m*3 2.2 C 0 km/h
16 08-05-2021 03:15:00 2.1 C 5.04 g/m*3 2.1 C 0 km/h
17 08-05-2021 03:20:00 2.1 C 5.09 g/m*3 2.1 C 0 km/h
18 08-05-2021 03:25:00 1.9 C 5.02 g/m*3 1.9 C 0 km/h
19 08-05-2021 03:30:00 1.9 C 5.02 g/m*3 1.9 C 0 km/h
20 08-05-2021 03:35:00 1.8 C 4.99 g/m*3 1.8 C 0 km/h
21 08-05-2021 03:40:00 1.8 C 4.99 g/m*3 1.8 C 0 km/h
22 08-05-2021 03:45:00 1.7 C 4.95 g/m*3 1.7 C 0 km/h
23 08-05-2021 03:50:00 1.7 C 4.95 g/m*3 1.7 C 0 km/h
24 08-05-2021 03:55:00 1.6 C 4.92 g/m*3 1.6 C 0 km/h
25 08-05-2021 04:00:00 1.6 C 4.97 g/m*3 1.6 C 0 km/h
Sensor: Nr:Datum:Temp:Abs-Feuchte:Windchill:Wind:
Aussen-T/F 26 08-05-2021 04:05:00 1.6 C 4.97 g/m*3 1.6 C 0 km/h
27 08-05-2021 04:10:00 1.6 C 4.97 g/m*3 1.6 C 0 km/h
28 08-05-2021 04:15:00 1.5 C 4.94 g/m*3 1.5 C 0 km/h
29 08-05-2021 04:20:00 1.4 C 4.91 g/m*3 1.4 C 0 km/h
30 08-05-2021 04:25:00 1.4 C 4.91 g/m*3 1.4 C 0 km/h
31 08-05-2021 04:30:00 1.3 C 4.87 g/m*3 1.3 C 0 km/h
32 08-05-2021 04:35:00 1.3 C 4.87 g/m*3 1.3 C 0 km/h
33 08-05-2021 04:40:00 1.3 C 4.87 g/m*3 1.3 C 0 km/h
34 08-05-2021 04:45:00 1.3 C 4.87 g/m*3 1.3 C 0 km/h
35 08-05-2021 04:50:00 1.3 C 4.93 g/m*3 1.3 C 0 km/h
36 08-05-2021 04:55:00 1.3 C 4.93 g/m*3 1.3 C 0 km/h
37 08-05-2021 05:00:00 1.2 C 4.84 g/m*3 1.2 C 0 km/h
38 08-05-2021 05:05:00 1.2 C 4.84 g/m*3 1.2 C 0 km/h
39 08-05-2021 05:10:00 1.2 C 4.89 g/m*3 1.2 C 0 km/h
40 08-05-2021 05:15:00 1.1 C 4.86 g/m*3 1.1 C 0 km/h
41 08-05-2021 05:20:00 1.1 C 4.86 g/m*3 1.1 C 0 km/h
42 08-05-2021 05:25:00 1 C 4.83 g/m*3 1 C 0 km/h
43 08-05-2021 05:30:00 1 C 4.83 g/m*3 1 C 0 km/h
44 08-05-2021 05:35:00 1 C 4.83 g/m*3 1 C 0 km/h
45 08-05-2021 05:40:00 0.9 C 4.79 g/m*3 0.9 C 0 km/h
46 08-05-2021 05:45:00 0.9 C 4.79 g/m*3 0.9 C 0 km/h
47 08-05-2021 05:50:00 0.8 C 4.76 g/m*3 0.8 C 0 km/h
48 08-05-2021 05:55:00 0.8 C 4.76 g/m*3 0.8 C 0 km/h
49 08-05-2021 06:00:00 0.8 C 4.76 g/m*3 0.8 C 0 km/h
50 08-05-2021 06:05:00 0.8 C 4.76 g/m*3 0.8 C 0 km/h
Sensor: Nr:Datum:Temp:Abs-Feuchte:Windchill:Wind:
Aussen-T/F 51 08-05-2021 06:10:00 0.7 C 4.73 g/m*3 0.7 C 0 km/h
52 08-05-2021 06:15:00 0.7 C 4.73 g/m*3 0.7 C 0 km/h
53 08-05-2021 06:20:00 0.7 C 4.73 g/m*3 0.7 C 0 km/h
54 08-05-2021 06:25:00 0.7 C 4.73 g/m*3 0.7 C 0 km/h
55 08-05-2021 06:30:00 0.7 C 4.73 g/m*3 0.7 C 0 km/h
56 08-05-2021 06:35:00 0.7 C 4.78 g/m*3 0.7 C 0 km/h
57 08-05-2021 06:40:00 0.7 C 4.78 g/m*3 0.7 C 0 km/h
58 08-05-2021 06:45:00 0.8 C 4.81 g/m*3 0.8 C 0 km/h
59 08-05-2021 06:50:00 0.8 C 4.81 g/m*3 0.8 C 0 km/h
60 08-05-2021 06:55:00 0.9 C 4.85 g/m*3 0.9 C 0 km/h
61 08-05-2021 07:00:00 1 C 4.88 g/m*3 1 C 0 km/h
62 08-05-2021 07:05:00 1.2 C 4.95 g/m*3 1.2 C 0 km/h
63 08-05-2021 07:10:00 1.2 C 5 g/m*3 1.2 C 0 km/h
64 08-05-2021 07:15:00 1.2 C 4.95 g/m*3 1.2 C 0 km/h
65 08-05-2021 07:20:00 1.3 C 4.98 g/m*3 1.3 C 0 km/h
66 08-05-2021 07:25:00 1.3 C 4.98 g/m*3 1.3 C 0 km/h
67 08-05-2021 07:30:00 1.3 C 4.98 g/m*3 1.3 C 0 km/h
68 08-05-2021 07:35:00 1.4 C 5.01 g/m*3 1.4 C 0 km/h

Legende:
   Min
   Max


Maximal/Minimal-Werte vom 08.05.2021 - 09.05.2021

Sensor Min Max Avg
Temp
(Aussen-T/F)
0.7 °C
08-05-2021  06:10:00
3.2 °C
08-05-2021  02:00:00
1.54 °C
Abs-Feuchte
(Aussen-T/F)
4.73 g/m*3
08-05-2021  06:10:00
5.42 g/m*3
08-05-2021  02:00:00
4.89 g/m*3
Windchill
(Aussen-T/F)
0.7 C
08-05-2021  06:10:00
3.2 C
08-05-2021  02:00:00
1.52 C

Die Daten stammen von einer Davis Vantage Pro 2 Wetter-Station und werden unter Linux mit der Software wview2wettercgi und aufbereitet. Alle Angaben erfolgen ohne Gewähr für ihre Vollständigkeit oder Richtigkeit.
Kontakt: Rainer Krienke krienke@uni-koblenz.de . Meine Webseiten an der Uni Koblenz oder privat.
Version: $Revision: 0.78 $